This is the latest recevied weather packets stored in our database for station/object EA3KZ-1. If no packets are shown the sender has not sent any weather packets the latest 1 day(s).
| Time | Temp. | Humidity | Pressure | Rain* | Wind** | Luminosity | Snow |
|---|---|---|---|---|---|---|---|
| 1778053529 | 12.78° C | 69% | 1007.4 hPa | 0 mm | - | - | - |
| 1778052920 | 12.22° C | 70% | 1007.3 hPa | 0 mm | - | - | - |
| 1778052318 | 12.22° C | 72% | 1007.2 hPa | 0 mm | - | - | - |
| 1778051715 | 11.67° C | 74% | 1007.2 hPa | 0 mm | - | - | - |
| 1778050565 | 11.67° C | 74% | 1007.1 hPa | 0 mm | - | - | - |
| 1778049956 | 11.67° C | 75% | 1007.1 hPa | 0 mm | - | - | - |
| 1778049354 | 11.11° C | 75% | 1007 hPa | 0 mm | - | - | - |
| 1778048143 | 11.11° C | 76% | 1007.2 hPa | 0 mm | - | - | - |
| 1778047540 | 11.11° C | 77% | 1007.1 hPa | 0 mm | - | - | - |
| 1778046329 | 10.56° C | 78% | 1007 hPa | 0 mm | - | - | - |
| 1778045720 | 10.56° C | 78% | 1007.1 hPa | 0 mm | - | - | - |
| 1778045118 | 10.56° C | 78% | 1006.9 hPa | 0 mm | - | - | - |
| 1778044515 | 10.56° C | 79% | 1006.8 hPa | 0 mm | - | - | - |
| 1778043365 | 10° C | 81% | 1006.6 hPa | 0 mm | - | - | - |
| 1778042154 | 9.44° C | 82% | 1006.5 hPa | 0 mm | - | - | - |
| 1778041551 | 9.44° C | 82% | 1006.5 hPa | 0 mm | - | - | - |
| 1778040942 | 10° C | 81% | 1006.3 hPa | 0 mm | - | - | - |
| 1778040340 | 10° C | 80% | 1006.3 hPa | 0 mm | - | - | - |
| 1778039129 | 10° C | 80% | 1006.1 hPa | 0 mm | - | - | - |
| 1778038520 | 10.56° C | 80% | 1006.2 hPa | 0 mm | - | - | - |
| 1778037315 | 10.56° C | 79% | 1006.2 hPa | 0 mm | - | - | - |
| 1778036768 | 11.11° C | 77% | 1006.3 hPa | 0 mm | - | - | - |
| 1778036165 | 11.67° C | 75% | 1006.2 hPa | 0 mm | - | - | - |
| 1778035556 | 11.67° C | 75% | 1006.2 hPa | 0 mm | - | - | - |
| 1778034954 | 11.67° C | 74% | 1006.3 hPa | 0 mm | - | - | - |
* Rain latest hour (hover to see other rain measurements)
** Current wind speed in m/s (hover to see current wind gust speed)